Time,TemperatureF,DewpointF,PressureIn,WindDirection,WindDirectionDegrees,WindSpeedMPH,WindSpeedGustMPH,Humidity,HourlyPrecipIn,Conditions,Clouds,dailyrainin,SoftwareType,DateUTC
2013-04-10 00:00:00,61.2,58.2,30.18,West,268,0.0,0.0,90,0.00,,,0.00,Wunderground v.1.15,2013-04-10 04:00:00,
2013-04-10 00:02:00,61.1,58.1,30.18,West,268,0.0,0.0,90,0.00,,,0.00,Wunderground v.1.15,2013-04-10 04:02:00,
2013-04-10 00:03:00,61.0,58.0,30.18,West,268,0.0,0.0,90,0.00,,,0.00,Wunderground v.1.15,2013-04-10 04:03:00,
2013-04-10 00:05:00,61.0,58.0,30.18,West,268,0.0,0.0,90,0.00,,,0.00,Wunderground v.1.15,2013-04-10 04:05:00,
2013-04-10 00:10:00,60.8,58.2,30.18,West,268,0.0,0.0,91,0.00,,,0.00,Wunderground v.1.15,2013-04-10 04:10:00,
2013-04-10 00:16:00,60.7,58.1,30.17,West,268,0.0,0.0,91,0.00,,,0.00,Wunderground v.1.15,2013-04-10 04:16:00,
2013-04-10 00:22:00,60.7,58.1,30.17,West,268,0.0,0.0,91,0.00,,,0.00,Wunderground v.1.15,2013-04-10 04:22:00,
2013-04-10 00:27:00,60.6,58.0,30.17,West,268,0.0,0.0,91,0.00,,,0.00,Wunderground v.1.15,2013-04-10 04:27:00,
2013-04-10 00:32:00,60.5,57.9,30.17,West,268,0.0,0.0,91,0.00,,,0.00,Wunderground v.1.15,2013-04-10 04:32:00,
2013-04-10 00:37:00,60.7,58.4,30.17,West,268,0.0,0.0,92,0.00,,,0.00,Wunderground v.1.15,2013-04-10 04:37:00,
2013-04-10 00:43:00,60.7,58.1,30.17,West,268,0.0,0.0,91,0.00,,,0.00,Wunderground v.1.15,2013-04-10 04:43:00,
2013-04-10 00:49:00,60.6,58.0,30.17,West,268,0.0,0.0,91,0.00,,,0.00,Wunderground v.1.15,2013-04-10 04:49:00,
2013-04-10 00:54:00,59.9,57.3,30.16,West,268,0.0,0.0,91,0.00,,,0.00,Wunderground v.1.15,2013-04-10 04:54:00,
2013-04-10 01:00:00,59.6,57.0,30.17,West,268,0.0,0.0,91,0.00,,,0.00,Wunderground v.1.15,2013-04-10 05:00:00,
2013-04-10 01:05:00,59.1,56.5,30.17,West,268,0.0,0.0,91,0.00,,,0.00,Wunderground v.1.15,2013-04-10 05:05:00,
2013-04-10 01:11:00,58.9,56.6,30.16,West,268,0.0,0.0,92,0.00,,,0.00,Wunderground v.1.15,2013-04-10 05:11:00,
2013-04-10 01:16:00,59.0,56.7,30.16,West,268,0.0,0.0,92,0.00,,,0.00,Wunderground v.1.15,2013-04-10 05:16:00,
2013-04-10 01:21:00,59.0,56.7,30.16,West,268,0.0,0.0,92,0.00,,,0.00,Wunderground v.1.15,2013-04-10 05:21:00,
2013-04-10 01:26:00,59.0,57.6,30.16,West,268,0.0,0.0,95,0.00,,,0.00,Wunderground v.1.15,2013-04-10 05:26:00,
2013-04-10 01:31:00,59.1,57.1,30.16,West,268,0.0,0.0,93,0.00,,,0.00,Wunderground v.1.15,2013-04-10 05:31:00,
2013-04-10 01:36:00,59.0,57.0,30.16,West,268,0.0,0.0,93,0.00,,,0.00,Wunderground v.1.15,2013-04-10 05:36:00,
2013-04-10 01:41:00,58.7,56.7,30.16,West,268,0.0,0.0,93,0.00,,,0.00,Wunderground v.1.15,2013-04-10 05:41:00,
2013-04-10 01:46:00,58.4,56.4,30.16,West,268,0.0,0.0,93,0.00,,,0.00,Wunderground v.1.15,2013-04-10 05:46:00,
2013-04-10 01:52:00,58.6,56.9,30.15,West,268,0.0,0.0,94,0.00,,,0.00,Wunderground v.1.15,2013-04-10 05:52:00,
2013-04-10 01:58:00,58.7,57.0,30.15,West,268,0.0,0.0,94,0.00,,,0.00,Wunderground v.1.15,2013-04-10 05:58:00,
2013-04-10 02:03:00,58.6,56.6,30.15,West,268,0.0,0.0,93,0.00,,,0.00,Wunderground v.1.15,2013-04-10 06:03:00,
2013-04-10 02:09:00,58.5,56.5,30.14,West,268,0.0,0.0,93,0.00,,,0.00,Wunderground v.1.15,2013-04-10 06:09:00,
2013-04-10 02:15:00,58.3,56.6,30.14,West,268,0.0,0.0,94,0.00,,,0.00,Wunderground v.1.15,2013-04-10 06:15:00,
2013-04-10 02:20:00,58.3,56.6,30.14,West,268,0.0,0.0,94,0.00,,,0.00,Wunderground v.1.15,2013-04-10 06:20:00,
2013-04-10 02:25:00,58.1,56.4,30.14,West,268,0.0,0.0,94,0.00,,,0.00,Wunderground v.1.15,2013-04-10 06:25:00,
2013-04-10 02:30:00,58.0,56.3,30.14,West,268,0.0,0.0,94,0.00,,,0.00,Wunderground v.1.15,2013-04-10 06:30:00,
2013-04-10 02:36:00,58.2,56.5,30.14,West,268,0.0,0.0,94,0.00,,,0.00,Wunderground v.1.15,2013-04-10 06:36:00,
2013-04-10 02:41:00,58.0,56.3,30.13,West,268,0.0,0.0,94,0.00,,,0.00,Wunderground v.1.15,2013-04-10 06:41:00,
2013-04-10 02:47:00,57.9,56.2,30.13,West,268,0.0,0.0,94,0.00,,,0.00,Wunderground v.1.15,2013-04-10 06:47:00,
2013-04-10 02:53:00,57.9,56.2,30.13,West,268,0.0,0.0,94,0.00,,,0.00,Wunderground v.1.15,2013-04-10 06:53:00,
2013-04-10 02:58:00,58.0,56.3,30.13,West,268,0.0,0.0,94,0.00,,,0.00,Wunderground v.1.15,2013-04-10 06:58:00,
2013-04-10 03:04:00,58.0,56.3,30.13,West,268,0.0,0.0,94,0.00,,,0.00,Wunderground v.1.15,2013-04-10 07:04:00,
2013-04-10 03:10:00,58.2,56.8,30.12,West,268,0.0,0.0,95,0.00,,,0.00,Wunderground v.1.15,2013-04-10 07:10:00,
2013-04-10 03:15:00,58.2,56.8,30.13,West,268,0.0,0.0,95,0.00,,,0.00,Wunderground v.1.15,2013-04-10 07:15:00,
2013-04-10 04:39:00,56.2,54.8,30.12,West,268,0.0,0.0,95,0.00,,,0.00,Wunderground v.1.15,2013-04-10 08:39:00,
2013-04-10 04:45:00,56.4,55.0,30.13,West,268,0.0,0.0,95,0.00,,,0.00,Wunderground v.1.15,2013-04-10 08:45:00,
2013-04-10 04:50:00,56.5,55.4,30.13,West,268,0.0,0.0,96,0.00,,,0.00,Wunderground v.1.15,2013-04-10 08:50:00,
2013-04-10 04:56:00,56.3,54.9,30.12,West,268,0.0,0.0,95,0.00,,,0.00,Wunderground v.1.15,2013-04-10 08:56:00,
2013-04-10 05:02:00,56.4,55.0,30.12,West,268,0.0,0.0,95,0.00,,,0.00,Wunderground v.1.15,2013-04-10 09:02:00,
2013-04-10 05:08:00,56.3,54.9,30.12,West,268,0.0,0.0,95,0.00,,,0.00,Wunderground v.1.15,2013-04-10 09:08:00,
2013-04-10 05:14:00,56.3,54.9,30.12,West,268,0.0,0.0,95,0.00,,,0.00,Wunderground v.1.15,2013-04-10 09:14:00,
2013-04-10 05:20:00,56.2,54.8,30.12,West,268,0.0,0.0,95,0.00,,,0.00,Wunderground v.1.15,2013-04-10 09:20:00,
2013-04-10 05:26:00,56.7,55.6,30.12,West,268,0.0,0.0,96,0.00,,,0.00,Wunderground v.1.15,2013-04-10 09:26:00,
2013-04-10 05:31:00,56.7,55.6,30.12,West,268,0.0,0.0,96,0.00,,,0.00,Wunderground v.1.15,2013-04-10 09:31:00,
2013-04-10 05:36:00,56.4,55.0,30.12,West,268,0.0,0.0,95,0.00,,,0.00,Wunderground v.1.15,2013-04-10 09:36:00,
2013-04-10 05:42:00,56.2,54.8,30.12,West,268,0.0,0.0,95,0.00,,,0.00,Wunderground v.1.15,2013-04-10 09:42:00,
2013-04-10 05:47:00,56.0,54.9,30.12,West,268,0.0,0.0,96,0.00,,,0.00,Wunderground v.1.15,2013-04-10 09:47:00,
2013-04-10 05:53:00,56.0,54.9,30.12,West,268,0.0,0.0,96,0.00,,,0.00,Wunderground v.1.15,2013-04-10 09:53:00,
2013-04-10 05:59:00,56.1,55.0,30.12,West,268,0.0,0.0,96,0.00,,,0.00,Wunderground v.1.15,2013-04-10 09:59:00,
2013-04-10 06:05:00,55.8,54.4,30.12,West,268,0.0,0.0,95,0.00,,,0.00,Wunderground v.1.15,2013-04-10 10:05:00,
2013-04-10 06:10:00,55.5,54.4,30.12,West,268,0.0,0.0,96,0.00,,,0.00,Wunderground v.1.15,2013-04-10 10:10:00,
2013-04-10 06:16:00,55.4,54.3,30.12,West,268,0.0,0.0,96,0.00,,,0.00,Wunderground v.1.15,2013-04-10 10:16:00,
2013-04-10 06:21:00,55.6,54.5,30.12,West,268,0.0,0.0,96,0.00,,,0.00,Wunderground v.1.15,2013-04-10 10:21:00,
2013-04-10 06:26:00,55.8,54.7,30.12,West,268,0.0,0.0,96,0.00,,,0.00,Wunderground v.1.15,2013-04-10 10:26:00,
2013-04-10 06:32:00,56.2,55.1,30.12,West,268,0.0,0.0,96,0.00,,,0.00,Wunderground v.1.15,2013-04-10 10:32:00,
2013-04-10 06:37:00,55.8,54.7,30.12,West,268,0.0,0.0,96,0.00,,,0.00,Wunderground v.1.15,2013-04-10 10:37:00,
2013-04-10 06:43:00,55.7,54.6,30.12,West,268,0.0,0.0,96,0.00,,,0.00,Wunderground v.1.15,2013-04-10 10:43:00,
2013-04-10 06:48:00,55.5,54.4,30.12,West,268,0.0,0.0,96,0.00,,,0.00,Wunderground v.1.15,2013-04-10 10:48:00,
2013-04-10 06:54:00,55.4,54.3,30.12,West,268,0.0,0.0,96,0.00,,,0.00,Wunderground v.1.15,2013-04-10 10:54:00,
2013-04-10 07:00:00,55.1,54.0,30.12,West,268,0.0,0.0,96,0.00,,,0.00,Wunderground v.1.15,2013-04-10 11:00:00,
2013-04-10 07:06:00,55.1,54.0,30.12,West,268,0.0,0.0,96,0.00,,,0.00,Wunderground v.1.15,2013-04-10 11:06:00,
2013-04-10 07:12:00,55.6,54.5,30.12,West,268,0.0,0.0,96,0.00,,,0.00,Wunderground v.1.15,2013-04-10 11:12:00,
2013-04-10 07:17:00,55.6,54.5,30.12,West,268,0.0,0.0,96,0.00,,,0.00,Wunderground v.1.15,2013-04-10 11:17:00,
2013-04-10 07:23:00,55.3,54.2,30.12,West,268,0.0,0.0,96,0.00,,,0.00,Wunderground v.1.15,2013-04-10 11:23:00,
2013-04-10 07:28:00,55.5,54.4,30.12,West,268,0.0,0.0,96,0.00,,,0.00,Wunderground v.1.15,2013-04-10 11:28:00,
2013-04-10 07:33:00,55.9,54.8,30.12,West,268,0.0,0.0,96,0.00,,,0.00,Wunderground v.1.15,2013-04-10 11:33:00,
2013-04-10 07:39:00,56.2,55.1,30.12,West,268,0.0,0.0,96,0.00,,,0.00,Wunderground v.1.15,2013-04-10 11:39:00,
2013-04-10 07:45:00,56.6,55.5,30.12,West,268,0.0,0.0,96,0.00,,,0.00,Wunderground v.1.15,2013-04-10 11:45:00,
2013-04-10 07:51:00,57.1,56.0,30.12,West,268,0.0,0.0,96,0.00,,,0.00,Wunderground v.1.15,2013-04-10 11:51:00,
2013-04-10 07:57:00,57.5,56.4,30.12,West,268,0.0,0.0,96,0.00,,,0.00,Wunderground v.1.15,2013-04-10 11:57:00,
2013-04-10 08:02:00,57.4,56.3,30.13,West,268,0.0,0.0,96,0.00,,,0.00,Wunderground v.1.15,2013-04-10 12:02:00,
2013-04-10 08:08:00,57.3,56.2,30.13,West,268,0.0,0.0,96,0.00,,,0.00,Wunderground v.1.15,2013-04-10 12:08:00,
2013-04-10 08:14:00,57.5,56.1,30.13,West,268,0.0,0.0,95,0.00,,,0.00,Wunderground v.1.15,2013-04-10 12:14:00,
2013-04-10 08:20:00,58.1,57.0,30.13,West,268,0.0,0.0,96,0.00,,,0.00,Wunderground v.1.15,2013-04-10 12:20:00,
2013-04-10 08:25:00,58.9,57.8,30.13,West,268,0.0,0.0,96,0.00,,,0.00,Wunderground v.1.15,2013-04-10 12:25:00,
2013-04-10 08:31:00,60.2,59.1,30.13,West,268,0.0,0.0,96,0.00,,,0.00,Wunderground v.1.15,2013-04-10 12:31:00,
2013-04-10 08:36:00,61.1,59.7,30.13,West,268,0.0,0.0,95,0.00,,,0.00,Wunderground v.1.15,2013-04-10 12:36:00,
2013-04-10 08:42:00,62.4,60.9,30.13,West,268,0.0,0.0,95,0.00,,,0.00,Wunderground v.1.15,2013-04-10 12:42:00,
2013-04-10 08:48:00,64.3,62.8,30.14,West,268,0.0,0.0,95,0.00,,,0.00,Wunderground v.1.15,2013-04-10 12:48:00,
2013-04-10 08:54:00,66.1,64.6,30.14,West,268,0.0,0.0,95,0.00,,,0.00,Wunderground v.1.15,2013-04-10 12:54:00,
2013-04-10 08:59:00,67.4,65.3,30.13,West,268,0.0,0.0,93,0.00,,,0.00,Wunderground v.1.15,2013-04-10 12:59:00,
2013-04-10 09:04:00,68.3,65.6,30.13,West,268,0.0,0.0,91,0.00,,,0.00,Wunderground v.1.15,2013-04-10 13:04:00,
2013-04-10 09:09:00,69.1,66.0,30.14,West,268,0.0,1.0,90,0.00,,,0.00,Wunderground v.1.15,2013-04-10 13:09:00,
2013-04-10 09:15:00,69.9,65.9,30.14,West,269,1.0,3.0,87,0.00,,,0.00,Wunderground v.1.15,2013-04-10 13:15:00,
2013-04-10 09:21:00,70.6,65.9,30.14,West,268,1.0,1.0,85,0.00,,,0.00,Wunderground v.1.15,2013-04-10 13:21:00,
2013-04-10 09:27:00,71.3,66.2,30.14,West,268,0.0,3.0,84,0.00,,,0.00,Wunderground v.1.15,2013-04-10 13:27:00,
2013-04-10 09:32:00,71.7,66.3,30.14,WSW,254,0.0,0.0,83,0.00,,,0.00,Wunderground v.1.15,2013-04-10 13:32:00,
2013-04-10 09:38:00,73.0,66.8,30.14,WSW,258,1.0,1.0,81,0.00,,,0.00,Wunderground v.1.15,2013-04-10 13:38:00,
2013-04-10 09:44:00,73.5,66.6,30.14,North,356,2.0,5.0,79,0.00,,,0.00,Wunderground v.1.15,2013-04-10 13:44:00,
2013-04-10 09:49:00,74.2,67.3,30.14,NW,309,2.0,5.0,79,0.00,,,0.00,Wunderground v.1.15,2013-04-10 13:49:00,
2013-04-10 09:54:00,74.7,67.4,30.14,NNW,328,1.0,4.0,78,0.00,,,0.00,Wunderground v.1.15,2013-04-10 13:54:00,
2013-04-10 09:59:00,74.9,66.8,30.15,WNW,290,1.0,4.0,76,0.00,,,0.00,Wunderground v.1.15,2013-04-10 13:59:00,
2013-04-10 10:05:00,75.2,67.1,30.14,WSW,258,2.0,3.0,76,0.00,,,0.00,Wunderground v.1.15,2013-04-10 14:05:00,
2013-04-10 10:11:00,75.7,66.8,30.15,WNW,289,2.0,5.0,74,0.00,,,0.00,Wunderground v.1.15,2013-04-10 14:11:00,
2013-04-10 10:16:00,75.8,66.9,30.14,NW,313,2.0,5.0,74,0.00,,,0.00,Wunderground v.1.15,2013-04-10 14:16:00,
2013-04-10 10:22:00,76.1,66.4,30.15,WNW,299,2.0,7.0,72,0.00,,,0.00,Wunderground v.1.15,2013-04-10 14:22:00,
2013-04-10 10:27:00,76.5,66.4,30.14,WSW,253,2.0,7.0,71,0.00,,,0.00,Wunderground v.1.15,2013-04-10 14:27:00,
2013-04-10 10:33:00,77.7,66.7,30.14,SSW,213,1.0,5.0,69,0.00,,,0.00,Wunderground v.1.15,2013-04-10 14:33:00,
2013-04-10 10:39:00,77.2,66.2,30.14,WNW,294,2.0,5.0,69,0.00,,,0.00,Wunderground v.1.15,2013-04-10 14:39:00,
2013-04-10 10:44:00,77.1,66.6,30.14,North,1,2.0,2.0,70,0.00,,,0.00,Wunderground v.1.15,2013-04-10 14:44:00,
2013-04-10 10:50:00,77.1,66.1,30.14,WSW,241,2.0,2.0,69,0.00,,,0.00,Wunderground v.1.15,2013-04-10 14:50:00,
2013-04-10 10:56:00,77.4,65.6,30.14,NE,50,2.0,5.0,67,0.00,,,0.00,Wunderground v.1.15,2013-04-10 14:56:00,
2013-04-10 11:01:00,77.6,65.3,30.14,NW,312,3.0,4.0,66,0.00,,,0.00,Wunderground v.1.15,2013-04-10 15:01:00,
2013-04-10 11:07:00,78.5,64.9,30.14,NW,320,4.0,6.0,63,0.00,,,0.00,Wunderground v.1.15,2013-04-10 15:07:00,
2013-04-10 11:12:00,77.6,64.5,30.14,NW,304,4.0,4.0,64,0.00,,,0.00,Wunderground v.1.15,2013-04-10 15:12:00,
2013-04-10 11:18:00,77.2,65.0,30.14,NW,310,2.0,4.0,66,0.00,,,0.00,Wunderground v.1.15,2013-04-10 15:18:00,
2013-04-10 11:23:00,78.8,65.6,30.14,NW,320,2.0,5.0,64,0.00,,,0.00,Wunderground v.1.15,2013-04-10 15:23:00,
2013-04-10 11:28:00,79.4,65.7,30.14,WSW,242,2.0,5.0,63,0.00,,,0.00,Wunderground v.1.15,2013-04-10 15:28:00,
2013-04-10 11:34:00,78.6,64.5,30.14,WSW,247,2.0,6.0,62,0.00,,,0.00,Wunderground v.1.15,2013-04-10 15:34:00,
2013-04-10 11:40:00,80.3,65.6,30.14,NNW,335,2.0,2.0,61,0.00,,,0.00,Wunderground v.1.15,2013-04-10 15:40:00,
2013-04-10 11:45:00,79.7,63.1,30.14,NW,319,1.0,5.0,57,0.00,,,0.00,Wunderground v.1.15,2013-04-10 15:45:00,
2013-04-10 11:51:00,80.2,64.6,30.14,WSW,251,2.0,2.0,59,0.00,,,0.00,Wunderground v.1.15,2013-04-10 15:51:00,
2013-04-10 11:56:00,81.2,63.0,30.14,NW,324,3.0,4.0,54,0.00,,,0.00,Wunderground v.1.15,2013-04-10 15:56:00,
2013-04-10 12:01:00,79.9,63.8,30.13,WSW,243,3.0,3.0,58,0.00,,,0.00,Wunderground v.1.15,2013-04-10 16:01:00,
2013-04-10 12:06:00,80.7,64.5,30.13,NNW,339,2.0,5.0,58,0.00,,,0.00,Wunderground v.1.15,2013-04-10 16:06:00,
2013-04-10 12:11:00,80.1,64.0,30.13,NW,322,2.0,8.0,58,0.00,,,0.00,Wunderground v.1.15,2013-04-10 16:11:00,
2013-04-10 12:16:00,81.2,63.5,30.13,NW,307,2.0,8.0,55,0.00,,,0.00,Wunderground v.1.15,2013-04-10 16:16:00,
2013-04-10 12:22:00,81.3,64.1,30.13,East,85,3.0,6.0,56,0.00,,,0.00,Wunderground v.1.15,2013-04-10 16:22:00,
2013-04-10 12:28:00,81.2,63.5,30.13,NW,308,4.0,6.0,55,0.00,,,0.00,Wunderground v.1.15,2013-04-10 16:28:00,
2013-04-10 12:33:00,81.4,64.2,30.13,WNW,285,2.0,3.0,56,0.00,,,0.00,Wunderground v.1.15,2013-04-10 16:33:00,
2013-04-10 12:39:00,82.3,64.0,30.12,WNW,286,2.0,3.0,54,0.00,,,0.00,Wunderground v.1.15,2013-04-10 16:39:00,
2013-04-10 12:45:00,81.8,63.5,30.12,NNW,334,2.0,5.0,54,0.00,,,0.00,Wunderground v.1.15,2013-04-10 16:45:00,
2013-04-10 12:51:00,81.8,64.1,30.12,WNW,288,2.0,4.0,55,0.00,,,0.00,Wunderground v.1.15,2013-04-10 16:51:00,
2013-04-10 12:57:00,83.4,62.8,30.11,North,354,2.0,4.0,50,0.00,,,0.00,Wunderground v.1.15,2013-04-10 16:57:00,
2013-04-10 13:03:00,81.2,63.5,30.11,WSW,253,2.0,2.0,55,0.00,,,0.00,Wunderground v.1.15,2013-04-10 17:03:00,
2013-04-10 13:08:00,83.5,62.9,30.11,North,360,1.0,3.0,50,0.00,,,0.00,Wunderground v.1.15,2013-04-10 17:08:00,
2013-04-10 13:13:00,83.7,63.7,30.10,West,279,2.0,4.0,51,0.00,,,0.00,Wunderground v.1.15,2013-04-10 17:13:00,
2013-04-10 13:19:00,84.1,63.5,30.10,SW,216,2.0,5.0,50,0.00,,,0.00,Wunderground v.1.15,2013-04-10 17:19:00,
2013-04-10 13:25:00,82.1,62.2,30.10,North,351,1.0,3.0,51,0.00,,,0.00,Wunderground v.1.15,2013-04-10 17:25:00,
2013-04-10 13:31:00,83.3,62.7,30.10,NE,45,2.0,3.0,50,0.00,,,0.00,Wunderground v.1.15,2013-04-10 17:31:00,
2013-04-10 13:36:00,83.3,62.7,30.10,NNW,331,2.0,6.0,50,0.00,,,0.00,Wunderground v.1.15,2013-04-10 17:36:00,
2013-04-10 13:41:00,83.9,62.1,30.10,West,262,1.0,1.0,48,0.00,,,0.00,Wunderground v.1.15,2013-04-10 17:41:00,
2013-04-10 13:47:00,82.9,61.8,30.10,NNW,345,2.0,6.0,49,0.00,,,0.00,Wunderground v.1.15,2013-04-10 17:47:00,
2013-04-10 13:52:00,82.4,63.0,30.09,NE,37,2.0,2.0,52,0.00,,,0.00,Wunderground v.1.15,2013-04-10 17:52:00,
2013-04-10 13:58:00,83.3,66.0,30.09,NNE,18,1.0,2.0,56,0.00,,,0.00,Wunderground v.1.15,2013-04-10 17:58:00,
2013-04-10 14:03:00,82.8,61.7,30.09,West,264,1.0,2.0,49,0.00,,,0.00,Wunderground v.1.15,2013-04-10 18:03:00,
2013-04-10 14:08:00,83.0,64.1,30.09,North,350,1.0,2.0,53,0.00,,,0.00,Wunderground v.1.15,2013-04-10 18:08:00,
2013-04-10 14:13:00,84.4,63.7,30.09,WNW,289,1.0,4.0,50,0.00,,,0.00,Wunderground v.1.15,2013-04-10 18:13:00,
2013-04-10 14:19:00,83.0,63.0,30.09,West,279,1.0,4.0,51,0.00,,,0.00,Wunderground v.1.15,2013-04-10 18:19:00,
2013-04-10 14:24:00,82.7,62.7,30.09,West,279,1.0,1.0,51,0.00,,,0.00,Wunderground v.1.15,2013-04-10 18:24:00,
2013-04-10 14:29:00,84.6,65.0,30.08,WSW,258,0.0,2.0,52,0.00,,,0.00,Wunderground v.1.15,2013-04-10 18:29:00,
2013-04-10 14:34:00,85.2,63.3,30.08,SW,223,1.0,3.0,48,0.00,,,0.00,Wunderground v.1.15,2013-04-10 18:34:00,
2013-04-10 14:40:00,83.7,62.5,30.08,SSW,213,1.0,2.0,49,0.00,,,0.00,Wunderground v.1.15,2013-04-10 18:40:00,
2013-04-10 14:46:00,83.7,63.7,30.08,WSW,248,1.0,6.0,51,0.00,,,0.00,Wunderground v.1.15,2013-04-10 18:46:00,
2013-04-10 14:52:00,84.7,63.4,30.08,SW,232,1.0,1.0,49,0.00,,,0.00,Wunderground v.1.15,2013-04-10 18:52:00,
2013-04-10 14:57:00,84.2,63.0,30.08,WSW,252,1.0,1.0,49,0.00,,,0.00,Wunderground v.1.15,2013-04-10 18:57:00,
2013-04-10 15:02:00,84.0,63.4,30.07,NW,305,0.0,1.0,50,0.00,,,0.00,Wunderground v.1.15,2013-04-10 19:02:00,
2013-04-10 15:08:00,83.5,64.0,30.07,NW,319,0.0,4.0,52,0.00,,,0.00,Wunderground v.1.15,2013-04-10 19:08:00,
2013-04-10 15:14:00,83.3,62.7,30.07,SW,216,0.0,1.0,50,0.00,,,0.00,Wunderground v.1.15,2013-04-10 19:14:00,
2013-04-10 15:20:00,83.5,63.5,30.07,SSW,210,0.0,4.0,51,0.00,,,0.00,Wunderground v.1.15,2013-04-10 19:20:00,
2013-04-10 15:26:00,83.4,62.8,30.07,WNW,287,1.0,4.0,50,0.00,,,0.00,Wunderground v.1.15,2013-04-10 19:26:00,
2013-04-10 15:32:00,83.8,63.2,30.07,NW,321,1.0,2.0,50,0.00,,,0.00,Wunderground v.1.15,2013-04-10 19:32:00,
2013-04-10 15:37:00,83.4,62.8,30.07,WSW,258,1.0,3.0,50,0.00,,,0.00,Wunderground v.1.15,2013-04-10 19:37:00,
2013-04-10 15:43:00,83.1,64.2,30.07,West,270,1.0,2.0,53,0.00,,,0.00,Wunderground v.1.15,2013-04-10 19:43:00,
2013-04-10 15:48:00,83.2,63.2,30.06,NNW,345,1.0,6.0,51,0.00,,,0.00,Wunderground v.1.15,2013-04-10 19:48:00,
2013-04-10 15:53:00,83.8,64.3,30.06,West,265,1.0,2.0,52,0.00,,,0.00,Wunderground v.1.15,2013-04-10 19:53:00,
2013-04-10 15:59:00,83.4,63.9,30.06,NW,316,1.0,4.0,52,0.00,,,0.00,Wunderground v.1.15,2013-04-10 19:59:00,
2013-04-10 16:05:00,84.0,64.5,30.05,NNW,335,1.0,3.0,52,0.00,,,0.00,Wunderground v.1.15,2013-04-10 20:05:00,
2013-04-10 16:11:00,85.0,63.1,30.05,WNW,301,1.0,1.0,48,0.00,,,0.00,Wunderground v.1.15,2013-04-10 20:11:00,
2013-04-10 16:17:00,83.8,63.7,30.04,WNW,297,1.0,3.0,51,0.00,,,0.00,Wunderground v.1.15,2013-04-10 20:17:00,
2013-04-10 16:22:00,84.8,63.5,30.04,SW,235,1.0,3.0,49,0.00,,,0.00,Wunderground v.1.15,2013-04-10 20:22:00,
2013-04-10 16:28:00,84.5,63.8,30.04,WNW,301,1.0,6.0,50,0.00,,,0.00,Wunderground v.1.15,2013-04-10 20:28:00,
2013-04-10 16:34:00,85.9,65.1,30.04,West,270,1.0,3.0,50,0.00,,,0.00,Wunderground v.1.15,2013-04-10 20:34:00,
2013-04-10 16:40:00,84.6,65.0,30.04,WSW,237,0.0,0.0,52,0.00,,,0.00,Wunderground v.1.15,2013-04-10 20:40:00,
2013-04-10 16:46:00,83.9,64.9,30.04,SSW,212,1.0,4.0,53,0.00,,,0.00,Wunderground v.1.15,2013-04-10 20:46:00,
2013-04-10 16:51:00,84.6,64.5,30.04,WSW,254,1.0,1.0,51,0.00,,,0.00,Wunderground v.1.15,2013-04-10 20:51:00,
2013-04-10 16:57:00,85.6,64.2,30.04,WSW,241,1.0,6.0,49,0.00,,,0.00,Wunderground v.1.15,2013-04-10 20:57:00,
2013-04-10 17:02:00,85.7,65.5,30.03,West,272,2.0,3.0,51,0.00,,,0.00,Wunderground v.1.15,2013-04-10 21:02:00,
2013-04-10 17:07:00,84.2,66.3,30.03,West,272,2.0,7.0,55,0.00,,,0.00,Wunderground v.1.15,2013-04-10 21:07:00,
2013-04-10 17:12:00,83.1,66.3,30.03,NW,325,2.0,3.0,57,0.00,,,0.00,Wunderground v.1.15,2013-04-10 21:12:00,
2013-04-10 17:17:00,82.4,66.1,30.03,NW,307,2.0,4.0,58,0.00,,,0.00,Wunderground v.1.15,2013-04-10 21:17:00,
2013-04-10 17:23:00,82.4,66.1,30.03,West,259,1.0,4.0,58,0.00,,,0.00,Wunderground v.1.15,2013-04-10 21:23:00,
2013-04-10 17:29:00,82.9,66.1,30.03,NW,315,1.0,4.0,57,0.00,,,0.00,Wunderground v.1.15,2013-04-10 21:29:00,
2013-04-10 17:35:00,83.9,66.5,30.03,NW,316,1.0,1.0,56,0.00,,,0.00,Wunderground v.1.15,2013-04-10 21:35:00,
2013-04-10 17:40:00,83.4,66.1,30.03,WNW,293,0.0,0.0,56,0.00,,,0.00,Wunderground v.1.15,2013-04-10 21:40:00,
2013-04-10 17:46:00,83.9,66.5,30.03,NW,308,0.0,3.0,56,0.00,,,0.00,Wunderground v.1.15,2013-04-10 21:46:00,
2013-04-10 17:52:00,84.5,66.6,30.03,NW,320,1.0,1.0,55,0.00,,,0.00,Wunderground v.1.15,2013-04-10 21:52:00,
2013-04-10 17:58:00,84.4,66.5,30.03,WNW,287,0.0,1.0,55,0.00,,,0.00,Wunderground v.1.15,2013-04-10 21:58:00,
2013-04-10 18:03:00,84.5,66.6,30.02,WSW,258,1.0,2.0,55,0.00,,,0.00,Wunderground v.1.15,2013-04-10 22:03:00,
2013-04-10 18:09:00,84.5,67.6,30.03,SW,234,1.0,5.0,57,0.00,,,0.00,Wunderground v.1.15,2013-04-10 22:09:00,
2013-04-10 18:15:00,84.5,67.6,30.03,NW,306,1.0,3.0,57,0.00,,,0.00,Wunderground v.1.15,2013-04-10 22:15:00,
2013-04-10 18:20:00,84.1,67.7,30.03,WSW,248,2.0,2.0,58,0.00,,,0.00,Wunderground v.1.15,2013-04-10 22:20:00,
2013-04-10 18:26:00,83.5,68.6,30.03,NW,322,1.0,2.0,61,0.00,,,0.00,Wunderground v.1.15,2013-04-10 22:26:00,
2013-04-10 18:31:00,82.4,67.6,30.03,West,266,1.0,2.0,61,0.00,,,0.00,Wunderground v.1.15,2013-04-10 22:31:00,
2013-04-10 18:36:00,81.4,67.1,30.03,West,266,2.0,4.0,62,0.00,,,0.00,Wunderground v.1.15,2013-04-10 22:36:00,
2013-04-10 18:42:00,80.6,67.3,30.03,WSW,256,1.0,2.0,64,0.00,,,0.00,Wunderground v.1.15,2013-04-10 22:42:00,
2013-04-10 18:47:00,80.0,67.2,30.03,WNW,291,1.0,4.0,65,0.00,,,0.00,Wunderground v.1.15,2013-04-10 22:47:00,
2013-04-10 18:52:00,79.8,67.4,30.03,NW,323,1.0,5.0,66,0.00,,,0.00,Wunderground v.1.15,2013-04-10 22:52:00,
2013-04-10 18:58:00,79.8,67.4,30.03,West,267,1.0,5.0,66,0.00,,,0.00,Wunderground v.1.15,2013-04-10 22:58:00,
2013-04-10 19:03:00,79.9,67.5,30.03,NW,311,1.0,5.0,66,0.00,,,0.00,Wunderground v.1.15,2013-04-10 23:03:00,
2013-04-10 19:09:00,79.4,67.5,30.03,WSW,256,1.0,5.0,67,0.00,,,0.00,Wunderground v.1.15,2013-04-10 23:09:00,
2013-04-10 19:14:00,79.0,67.1,30.03,WNW,289,2.0,4.0,67,0.00,,,0.00,Wunderground v.1.15,2013-04-10 23:14:00,
2013-04-10 19:20:00,78.7,67.2,30.03,WSW,251,2.0,2.0,68,0.00,,,0.00,Wunderground v.1.15,2013-04-10 23:20:00,
2013-04-10 19:25:00,78.4,67.0,30.03,WNW,287,1.0,3.0,68,0.00,,,0.00,Wunderground v.1.15,2013-04-10 23:25:00,
2013-04-10 19:30:00,78.1,67.1,30.03,SSW,212,0.0,1.0,69,0.00,,,0.00,Wunderground v.1.15,2013-04-10 23:30:00,
2013-04-10 19:35:00,77.8,67.2,30.03,West,275,0.0,4.0,70,0.00,,,0.00,Wunderground v.1.15,2013-04-10 23:35:00,
2013-04-10 19:40:00,77.4,67.3,30.03,West,278,0.0,0.0,71,0.00,,,0.00,Wunderground v.1.15,2013-04-10 23:40:00,
2013-04-10 19:46:00,77.0,67.3,30.02,NW,320,1.0,2.0,72,0.00,,,0.00,Wunderground v.1.15,2013-04-10 23:46:00,
2013-04-10 19:52:00,76.7,67.0,30.03,WNW,303,1.0,4.0,72,0.00,,,0.00,Wunderground v.1.15,2013-04-10 23:52:00,
2013-04-10 19:57:00,76.5,67.2,30.02,NNW,347,2.0,6.0,73,0.00,,,0.00,Wunderground v.1.15,2013-04-10 23:57:00,
2013-04-10 20:03:00,76.1,67.2,30.03,WNW,283,3.0,5.0,74,0.00,,,0.00,Wunderground v.1.15,2013-04-11 00:03:00,
2013-04-10 20:09:00,75.8,67.3,30.03,WNW,300,2.0,11.0,75,0.00,,,0.00,Wunderground v.1.15,2013-04-11 00:09:00,
2013-04-10 20:15:00,75.7,67.6,30.03,WNW,299,2.0,5.0,76,0.00,,,0.00,Wunderground v.1.15,2013-04-11 00:15:00,
2013-04-10 20:21:00,75.5,67.8,30.03,NW,312,1.0,5.0,77,0.00,,,0.00,Wunderground v.1.15,2013-04-11 00:21:00,
2013-04-10 20:26:00,75.2,67.9,30.03,NW,308,1.0,5.0,78,0.00,,,0.00,Wunderground v.1.15,2013-04-11 00:26:00,
2013-04-10 20:32:00,74.9,67.6,30.03,WNW,283,2.0,3.0,78,0.00,,,0.00,Wunderground v.1.15,2013-04-11 00:32:00,
2013-04-10 20:38:00,74.8,67.8,30.03,WNW,297,1.0,3.0,79,0.00,,,0.00,Wunderground v.1.15,2013-04-11 00:38:00,
2013-04-10 20:43:00,74.7,68.1,30.04,West,278,1.0,2.0,80,0.00,,,0.00,Wunderground v.1.15,2013-04-11 00:43:00,
2013-04-10 20:48:00,74.6,68.4,30.04,NNW,345,2.0,3.0,81,0.00,,,0.00,Wunderground v.1.15,2013-04-11 00:48:00,
2013-04-10 20:53:00,74.4,68.2,30.04,West,278,2.0,4.0,81,0.00,,,0.00,Wunderground v.1.15,2013-04-11 00:53:00,
2013-04-10 20:58:00,74.2,68.3,30.04,West,274,2.0,6.0,82,0.00,,,0.00,Wunderground v.1.15,2013-04-11 00:58:00,
2013-04-10 21:04:00,74.1,68.3,30.05,NW,312,1.0,4.0,82,0.00,,,0.00,Wunderground v.1.15,2013-04-11 01:04:00,
2013-04-10 21:10:00,73.9,68.4,30.05,WNW,301,1.0,1.0,83,0.00,,,0.00,Wunderground v.1.15,2013-04-11 01:10:00,
2013-04-10 21:16:00,73.8,68.3,30.05,West,269,1.0,4.0,83,0.00,,,0.00,Wunderground v.1.15,2013-04-11 01:16:00,
2013-04-10 21:22:00,73.7,68.6,30.05,NW,310,1.0,2.0,84,0.00,,,0.00,Wunderground v.1.15,2013-04-11 01:22:00,
2013-04-10 21:28:00,73.5,68.4,30.05,WNW,283,1.0,2.0,84,0.00,,,0.00,Wunderground v.1.15,2013-04-11 01:28:00,
2013-04-10 21:33:00,73.4,68.6,30.05,WNW,287,0.0,0.0,85,0.00,,,0.00,Wunderground v.1.15,2013-04-11 01:33:00,
2013-04-10 21:39:00,73.4,68.6,30.05,NW,305,1.0,5.0,85,0.00,,,0.00,Wunderground v.1.15,2013-04-11 01:39:00,
2013-04-10 21:45:00,73.3,68.5,30.06,WSW,254,1.0,1.0,85,0.00,,,0.00,Wunderground v.1.15,2013-04-11 01:45:00,
2013-04-10 21:51:00,73.3,68.5,30.05,NW,304,1.0,1.0,85,0.00,,,0.00,Wunderground v.1.15,2013-04-11 01:51:00,
2013-04-10 21:57:00,73.2,68.8,30.05,West,273,1.0,2.0,86,0.00,,,0.00,Wunderground v.1.15,2013-04-11 01:57:00,
2013-04-10 22:03:00,73.1,68.7,30.05,NW,305,1.0,3.0,86,0.00,,,0.00,Wunderground v.1.15,2013-04-11 02:03:00,
2013-04-10 22:09:00,73.0,68.6,30.06,West,278,1.0,3.0,86,0.00,,,0.00,Wunderground v.1.15,2013-04-11 02:09:00,
2013-04-10 22:14:00,72.9,68.5,30.05,West,281,1.0,2.0,86,0.00,,,0.00,Wunderground v.1.15,2013-04-11 02:14:00,
2013-04-10 22:20:00,72.8,68.7,30.05,NW,318,1.0,1.0,87,0.00,,,0.00,Wunderground v.1.15,2013-04-11 02:20:00,
2013-04-10 22:26:00,72.7,68.6,30.05,West,269,1.0,6.0,87,0.00,,,0.00,Wunderground v.1.15,2013-04-11 02:26:00,
2013-04-10 22:32:00,72.5,68.4,30.05,WNW,298,1.0,1.0,87,0.00,,,0.00,Wunderground v.1.15,2013-04-11 02:32:00,
2013-04-10 22:37:00,72.3,68.5,30.05,West,275,0.0,1.0,88,0.00,,,0.00,Wunderground v.1.15,2013-04-11 02:37:00,
2013-04-10 22:43:00,72.3,68.5,30.06,WNW,289,0.0,1.0,88,0.00,,,0.00,Wunderground v.1.15,2013-04-11 02:43:00,
2013-04-10 22:48:00,72.3,68.9,30.06,WNW,303,1.0,4.0,89,0.00,,,0.00,Wunderground v.1.15,2013-04-11 02:48:00,
2013-04-10 22:53:00,72.4,69.0,30.05,NW,311,1.0,3.0,89,0.00,,,0.00,Wunderground v.1.15,2013-04-11 02:53:00,
2013-04-10 22:58:00,72.5,69.1,30.05,WNW,302,1.0,5.0,89,0.00,,,0.00,Wunderground v.1.15,2013-04-11 02:58:00,
2013-04-10 23:03:00,72.5,69.1,30.05,NW,305,0.0,1.0,89,0.00,,,0.00,Wunderground v.1.15,2013-04-11 03:03:00,
2013-04-10 23:09:00,72.4,69.0,30.05,NW,305,0.0,1.0,89,0.00,,,0.00,Wunderground v.1.15,2013-04-11 03:09:00,
2013-04-10 23:15:00,72.4,69.0,30.05,WNW,303,1.0,5.0,89,0.00,,,0.00,Wunderground v.1.15,2013-04-11 03:15:00,
2013-04-10 23:21:00,72.4,69.0,30.05,WNW,303,1.0,1.0,89,0.00,,,0.00,Wunderground v.1.15,2013-04-11 03:21:00,
2013-04-10 23:26:00,72.2,68.8,30.05,WNW,303,0.0,1.0,89,0.00,,,0.00,Wunderground v.1.15,2013-04-11 03:26:00,
2013-04-10 23:31:00,72.1,69.0,30.04,WNW,303,0.0,0.0,90,0.00,,,0.00,Wunderground v.1.15,2013-04-11 03:31:00,
2013-04-10 23:36:00,72.0,68.9,30.04,NW,309,0.0,0.0,90,0.00,,,0.00,Wunderground v.1.15,2013-04-11 03:36:00,
2013-04-10 23:41:00,71.9,68.8,30.04,NW,308,0.0,0.0,90,0.00,,,0.00,Wunderground v.1.15,2013-04-11 03:41:00,
2013-04-10 23:47:00,71.9,68.8,30.04,NW,308,0.0,0.0,90,0.00,,,0.00,Wunderground v.1.15,2013-04-11 03:47:00,
2013-04-10 23:52:00,71.8,69.0,30.04,WNW,285,1.0,1.0,91,0.00,,,0.00,Wunderground v.1.15,2013-04-11 03:52:00,
2013-04-10 23:58:00,71.7,68.9,30.04,NW,326,1.0,6.0,91,0.00,,,0.00,Wunderground v.1.15,2013-04-11 03:58:00,